Regional Weather Roundup
Issued by NWS Bismarck, ND

Home | Current Version | Previous Version | Text Only | Print | Product List | Glossary On
Versions: 1 2 3 4 5 6 7 8 9 10 11 12 13 14 15 16 17 18 19 20 21 22 23 24 25 26 27 28 29 30 31 32 33 34 35 36 37 38 39 40 41 42 43 44 45 46 47 48 49 50
000
ASUS43 KBIS 122359
RWRBIS

NWR BROADCAST TEXT
NATIONAL WEATHER SERVICE BISMARCK ND
700 PM CDT SAT JUL 12 2014

NOTE: "FAIR" INDICATES FEW OR NO CLOUDS BELOW 12,000 FEET WITH NO
SIGNIFICANT WEATHER AND/OR OBSTRUCTIONS TO VISIBILITY.


CITY           SKY/WX    TMP DP  RH WIND       PRES   REMARKS
WILLISTON      SUNNY     83  48  29 NW22G28   30.07S
MINOT          NOT AVBL
MINOT AFB      NOT AVBL
BISMARCK       SUNNY     80  57  45 NW13G22   30.03R
DICKINSON      MOSUNNY   79  53  40 NW13      30.08S
GARRISON         N/A     77  55  46 W13G21    30.02F
HETTINGER ARPT SUNNY     81  55  40 NW12      30.11F
JAMESTOWN      NOT AVBL
MANDAN         FAIR      77  57  50 NW15      30.05S
$$

CITY           SKY/WX    TMP DP  RH WIND       PRES   REMARKS
GRAND FORKS    PTSUNNY   71  52  50 N29G40    29.92R
GRAND FORKS AF NOT AVBL
DEVILS LAKE    PTSUNNY   64  52  63 N23G33    29.96R
FARGO          MOSUNNY   81  56  42 W14       29.91F
GWINNER        CLEAR     81  61  50 W9        29.97S
$$

CITY           SKY/WX    TMP DP  RH WIND       PRES   REMARKS
ABERDEEN       SUNNY     81  59  47 W14       29.99F
MOBRIDGE       SUNNY     80  64  58 NW8       30.01F
BUFFALO          N/A     81  54  39 N15       30.08S
RAPID CITY     MOSUNNY   80  62  54 CALM      30.15F
SIDNEY         SUNNY     82  46  28 NW17G23   30.11S
WOLF POINT     SUNNY     86  43  22 N22       30.11S
GLENDIVE       SUNNY     82  46  28 N16G24    30.13S
MILES CITY     SUNNY     87  48  25 N16       30.14S
BAKER          SUNNY     81  48  31 NW16G25   30.15F
$$

CITY           SKY/WX    TMP DP  RH WIND       PRES   REMARKS
BILLINGS       MOSUNNY   85  44  23 E6        30.20S
GREAT FALLS    SUNNY     86  37  17 E7        30.19F
$$



USA.gov is the U.S. government's official web portal to all federal, state and local government web resources and services.